Time,TemperatureF,DewpointF,PressureIn,WindDirection,WindDirectionDegrees,WindSpeedMPH,WindSpeedGustMPH,Humidity,HourlyPrecipIn,Conditions,Clouds,dailyrainin,SoftwareType,DateUTC
2013-10-15 00:00:00,35.0,24.0,30.33,ESE,120,0.0,1.0,65,0.00,,,0.00,weatherlink.com 1.10,2013-10-15 07:00:00,
2013-10-15 00:15:00,34.6,24.0,30.33,ESE,122,0.0,1.0,65,0.00,,,0.00,weatherlink.com 1.10,2013-10-15 07:15:00,
2013-10-15 00:30:00,35.6,25.0,30.33,ESE,117,0.0,1.0,65,0.00,,,0.00,weatherlink.com 1.10,2013-10-15 07:30:00,
2013-10-15 00:45:00,34.7,24.0,30.33,ESE,113,0.0,1.0,66,0.00,,,0.00,weatherlink.com 1.10,2013-10-15 07:45:00,
2013-10-15 01:00:00,35.4,24.0,30.33,SE,129,0.0,2.0,64,0.00,,,0.00,weatherlink.com 1.10,2013-10-15 08:00:00,
2013-10-15 01:15:00,34.5,24.0,30.33,East,98,0.0,1.0,66,0.00,,,0.00,weatherlink.com 1.10,2013-10-15 08:15:00,
2013-10-15 01:30:00,33.3,24.0,30.34,East,100,0.0,0.0,68,0.00,,,0.00,weatherlink.com 1.10,2013-10-15 08:30:00,
2013-10-15 01:45:00,34.0,24.0,30.34,East,100,0.0,0.0,67,0.00,,,0.00,weatherlink.com 1.10,2013-10-15 08:45:00,
2013-10-15 02:00:00,34.2,24.0,30.34,ESE,122,0.0,0.0,67,0.00,,,0.00,weatherlink.com 1.10,2013-10-15 09:00:00,
2013-10-15 02:15:00,35.1,24.0,30.34,ESE,122,0.0,0.0,65,0.00,,,0.00,weatherlink.com 1.10,2013-10-15 09:15:00,
2013-10-15 02:30:00,34.3,24.0,30.35,ESE,107,2.0,2.0,66,0.00,,,0.00,weatherlink.com 1.10,2013-10-15 09:30:00,
2013-10-15 02:45:00,34.2,24.0,30.35,ESE,102,0.0,1.0,67,0.00,,,0.00,weatherlink.com 1.10,2013-10-15 09:45:00,
2013-10-15 03:00:00,34.3,24.0,30.35,ESE,105,0.0,3.0,67,0.00,,,0.00,weatherlink.com 1.10,2013-10-15 10:00:00,
2013-10-15 03:15:00,34.5,24.0,30.34,ESE,105,0.0,0.0,66,0.00,,,0.00,weatherlink.com 1.10,2013-10-15 10:15:00,
2013-10-15 03:30:00,34.0,25.0,30.34,ESE,105,0.0,2.0,69,0.00,,,0.00,weatherlink.com 1.10,2013-10-15 10:30:00,
2013-10-15 03:46:00,33.2,25.0,30.34,East,100,0.0,0.0,72,0.00,,,0.00,weatherlink.com 1.10,2013-10-15 10:46:00,
2013-10-15 04:01:00,32.7,25.0,30.34,East,100,0.0,0.0,74,0.00,,,0.00,weatherlink.com 1.10,2013-10-15 11:01:00,
2013-10-15 04:16:00,33.6,26.0,30.34,ESE,102,0.0,0.0,74,0.00,,,0.00,weatherlink.com 1.10,2013-10-15 11:16:00,
2013-10-15 04:31:00,35.0,27.0,30.34,East,101,0.0,0.0,72,0.00,,,0.00,weatherlink.com 1.10,2013-10-15 11:31:00,
2013-10-15 04:46:00,34.6,26.0,30.34,East,101,0.0,0.0,71,0.00,,,0.00,weatherlink.com 1.10,2013-10-15 11:46:00,
2013-10-15 05:01:00,33.5,26.0,30.34,SE,129,0.0,0.0,75,0.00,,,0.00,weatherlink.com 1.10,2013-10-15 12:01:00,
2013-10-15 05:16:00,34.5,27.0,30.33,ESE,122,0.0,0.0,75,0.00,,,0.00,weatherlink.com 1.10,2013-10-15 12:16:00,
2013-10-15 05:31:00,33.1,27.0,30.34,SE,142,2.0,3.0,77,0.00,,,0.00,weatherlink.com 1.10,2013-10-15 12:31:00,
2013-10-15 05:46:00,34.9,27.0,30.34,ESE,110,0.0,2.0,72,0.00,,,0.00,weatherlink.com 1.10,2013-10-15 12:46:00,
2013-10-15 06:01:00,35.5,27.0,30.34,ESE,120,0.0,0.0,71,0.00,,,0.00,weatherlink.com 1.10,2013-10-15 13:01:00,
2013-10-15 06:16:00,34.0,26.0,30.34,ESE,105,0.0,2.0,73,0.00,,,0.00,weatherlink.com 1.10,2013-10-15 13:16:00,
2013-10-15 06:31:00,32.5,26.0,30.33,East,98,0.0,0.0,78,0.00,,,0.00,weatherlink.com 1.10,2013-10-15 13:31:00,
2013-10-15 06:46:00,32.7,26.0,30.34,ESE,116,0.0,2.0,76,0.00,,,0.00,weatherlink.com 1.10,2013-10-15 13:46:00,
2013-10-15 07:01:00,31.8,25.0,30.34,SE,139,0.0,1.0,77,0.00,,,0.00,weatherlink.com 1.10,2013-10-15 14:01:00,
2013-10-15 07:16:00,31.0,25.0,30.34,SE,143,0.0,1.0,79,0.00,,,0.00,weatherlink.com 1.10,2013-10-15 14:16:00,
2013-10-15 07:31:00,30.9,25.0,30.34,East,98,0.0,4.0,80,0.00,,,0.00,weatherlink.com 1.10,2013-10-15 14:31:00,
2013-10-15 07:46:00,31.9,26.0,30.34,ESE,107,0.0,4.0,78,0.00,,,0.00,weatherlink.com 1.10,2013-10-15 14:46:00,
2013-10-15 08:01:00,32.5,26.0,30.35,East,101,0.0,3.0,76,0.00,,,0.00,weatherlink.com 1.10,2013-10-15 15:01:00,
2013-10-15 08:16:00,32.4,26.0,30.35,ESE,111,0.0,4.0,77,0.00,,,0.00,weatherlink.com 1.10,2013-10-15 15:16:00,
2013-10-15 08:31:00,33.5,26.0,30.35,SSE,148,0.0,3.0,75,0.00,,,0.00,weatherlink.com 1.10,2013-10-15 15:31:00,
2013-10-15 08:46:00,34.9,27.0,30.36,SE,146,3.0,5.0,73,0.00,,,0.00,weatherlink.com 1.10,2013-10-15 15:46:00,
2013-10-15 09:01:00,35.5,28.0,30.35,SSE,153,2.0,7.0,73,0.00,,,0.00,weatherlink.com 1.10,2013-10-15 16:01:00,
2013-10-15 09:16:00,36.4,27.0,30.35,SE,143,2.0,10.0,70,0.00,,,0.00,weatherlink.com 1.10,2013-10-15 16:16:00,
2013-10-15 09:31:00,38.7,29.0,30.35,SSE,152,2.0,7.0,67,0.00,,,0.00,weatherlink.com 1.10,2013-10-15 16:31:00,
2013-10-15 09:46:00,39.7,29.0,30.35,SSE,149,4.0,5.0,65,0.00,,,0.00,weatherlink.com 1.10,2013-10-15 16:46:00,
2013-10-15 10:01:00,40.5,29.0,30.35,SSE,159,2.0,8.0,63,0.00,,,0.00,weatherlink.com 1.10,2013-10-15 17:01:00,
2013-10-15 10:16:00,41.3,29.0,30.34,SE,140,1.0,6.0,61,0.00,,,0.00,weatherlink.com 1.10,2013-10-15 17:16:00,
2013-10-15 10:31:00,42.0,29.0,30.34,SW,221,2.0,6.0,61,0.00,,,0.00,weatherlink.com 1.10,2013-10-15 17:31:00,
2013-10-15 10:47:00,43.3,29.0,30.33,SSW,198,6.0,9.0,58,0.00,,,0.00,weatherlink.com 1.10,2013-10-15 17:47:00,
2013-10-15 11:02:00,43.9,28.0,30.33,SSE,159,7.0,12.0,55,0.00,,,0.00,weatherlink.com 1.10,2013-10-15 18:02:00,
2013-10-15 11:17:00,45.1,30.0,30.32,SW,224,3.0,9.0,55,0.00,,,0.00,weatherlink.com 1.10,2013-10-15 18:17:00,
2013-10-15 11:32:00,45.8,30.0,30.32,SW,221,5.0,9.0,54,0.00,,,0.00,weatherlink.com 1.10,2013-10-15 18:32:00,
2013-10-15 11:47:00,46.5,30.0,30.31,SSE,150,4.0,9.0,53,0.00,,,0.00,weatherlink.com 1.10,2013-10-15 18:47:00,
2013-10-15 12:02:00,47.8,31.0,30.31,SSE,149,5.0,9.0,52,0.00,,,0.00,weatherlink.com 1.10,2013-10-15 19:02:00,
2013-10-15 12:17:00,48.3,30.0,30.30,South,190,0.0,10.0,50,0.00,,,0.00,weatherlink.com 1.10,2013-10-15 19:17:00,
2013-10-15 12:32:00,49.1,30.0,30.30,SE,127,4.0,7.0,49,0.00,,,0.00,weatherlink.com 1.10,2013-10-15 19:32:00,
2013-10-15 12:47:00,50.0,30.0,30.30,SE,128,2.0,6.0,46,0.00,,,0.00,weatherlink.com 1.10,2013-10-15 19:47:00,
2013-10-15 13:02:00,50.6,31.0,30.28,South,180,1.0,8.0,47,0.00,,,0.00,weatherlink.com 1.10,2013-10-15 20:02:00,
2013-10-15 13:17:00,51.6,30.0,30.28,ESE,117,6.0,13.0,44,0.00,,,0.00,weatherlink.com 1.10,2013-10-15 20:17:00,
2013-10-15 13:32:00,52.2,31.0,30.27,South,184,2.0,8.0,44,0.00,,,0.00,weatherlink.com 1.10,2013-10-15 20:32:00,
2013-10-15 13:47:00,52.8,31.0,30.26,East,98,5.0,10.0,43,0.00,,,0.00,weatherlink.com 1.10,2013-10-15 20:47:00,
2013-10-15 14:02:00,53.6,30.0,30.25,SSW,205,0.0,8.0,41,0.00,,,0.00,weatherlink.com 1.10,2013-10-15 21:02:00,
2013-10-15 14:17:00,54.4,32.0,30.25,West,278,0.0,7.0,42,0.00,,,0.00,weatherlink.com 1.10,2013-10-15 21:17:00,
2013-10-15 14:32:00,54.8,29.0,30.24,East,100,1.0,9.0,37,0.00,,,0.00,weatherlink.com 1.10,2013-10-15 21:32:00,
2013-10-15 14:47:00,55.5,30.0,30.23,SSW,197,0.0,6.0,38,0.00,,,0.00,weatherlink.com 1.10,2013-10-15 21:47:00,
2013-10-15 15:02:00,55.8,29.0,30.22,ESE,111,4.0,11.0,36,0.00,,,0.00,weatherlink.com 1.10,2013-10-15 22:02:00,
2013-10-15 15:17:00,56.8,29.0,30.21,East,100,4.0,10.0,35,0.00,,,0.00,weatherlink.com 1.10,2013-10-15 22:17:00,
2013-10-15 15:32:00,57.2,29.0,30.21,SSW,204,3.0,8.0,34,0.00,,,0.00,weatherlink.com 1.10,2013-10-15 22:32:00,
2013-10-15 15:47:00,57.0,28.0,30.21,West,270,0.0,8.0,33,0.00,,,0.00,weatherlink.com 1.10,2013-10-15 22:47:00,
2013-10-15 16:02:00,57.9,28.0,30.21,SSW,200,1.0,6.0,32,0.00,,,0.00,weatherlink.com 1.10,2013-10-15 23:02:00,
2013-10-15 16:17:00,58.6,28.0,30.20,SE,138,0.0,7.0,31,0.00,,,0.00,weatherlink.com 1.10,2013-10-15 23:17:00,
2013-10-15 16:32:00,58.3,28.0,30.20,SSE,150,0.0,6.0,32,0.00,,,0.00,weatherlink.com 1.10,2013-10-15 23:32:00,
2013-10-15 16:47:00,58.4,28.0,30.19,SSW,198,0.0,8.0,31,0.00,,,0.00,weatherlink.com 1.10,2013-10-15 23:47:00,
2013-10-15 17:02:00,58.6,28.0,30.19,SSE,149,1.0,6.0,31,0.00,,,0.00,weatherlink.com 1.10,2013-10-16 00:02:00,
2013-10-15 17:17:00,58.4,28.0,30.19,NE,37,0.0,4.0,32,0.00,,,0.00,weatherlink.com 1.10,2013-10-16 00:17:00,
2013-10-15 17:32:00,57.6,28.0,30.18,SE,139,0.0,4.0,32,0.00,,,0.00,weatherlink.com 1.10,2013-10-16 00:32:00,
2013-10-15 17:47:00,57.0,29.0,30.18,ESE,121,0.0,1.0,35,0.00,,,0.00,weatherlink.com 1.10,2013-10-16 00:47:00,
2013-10-15 18:02:00,57.6,30.0,30.18,SE,124,0.0,0.0,35,0.00,,,0.00,weatherlink.com 1.10,2013-10-16 01:02:00,
2013-10-15 18:17:00,54.7,29.0,30.18,SE,124,0.0,0.0,38,0.00,,,0.00,weatherlink.com 1.10,2013-10-16 01:17:00,
2013-10-15 18:32:00,50.1,30.0,30.17,ESE,122,0.0,2.0,46,0.00,,,0.00,weatherlink.com 1.10,2013-10-16 01:32:00,
2013-10-15 18:47:00,48.4,31.0,30.18,SE,124,0.0,0.0,51,0.00,,,0.00,weatherlink.com 1.10,2013-10-16 01:47:00,
2013-10-15 19:02:00,46.7,32.0,30.18,SSE,148,1.0,3.0,56,0.00,,,0.00,weatherlink.com 1.10,2013-10-16 02:02:00,
2013-10-15 19:17:00,45.5,32.0,30.18,SE,125,0.0,2.0,59,0.00,,,0.00,weatherlink.com 1.10,2013-10-16 02:17:00,
2013-10-15 19:32:00,44.5,31.0,30.17,ESE,116,0.0,2.0,60,0.00,,,0.00,weatherlink.com 1.10,2013-10-16 02:32:00,
2013-10-15 19:47:00,45.0,32.0,30.17,East,94,0.0,3.0,60,0.00,,,0.00,weatherlink.com 1.10,2013-10-16 02:47:00,
2013-10-15 20:02:00,44.6,31.0,30.16,East,96,0.0,0.0,60,0.00,,,0.00,weatherlink.com 1.10,2013-10-16 03:02:00,
2013-10-15 20:17:00,45.2,29.0,30.16,SE,127,0.0,1.0,54,0.00,,,0.00,weatherlink.com 1.10,2013-10-16 03:17:00,
2013-10-15 20:32:00,46.0,27.0,30.15,SE,133,0.0,0.0,48,0.00,,,0.00,weatherlink.com 1.10,2013-10-16 03:32:00,
2013-10-15 20:47:00,46.4,26.0,30.16,East,100,0.0,2.0,46,0.00,,,0.00,weatherlink.com 1.10,2013-10-16 03:47:00,
2013-10-15 21:02:00,46.3,26.0,30.15,ESE,120,0.0,2.0,46,0.00,,,0.00,weatherlink.com 1.10,2013-10-16 04:02:00,
2013-10-15 21:17:00,46.6,26.0,30.16,East,91,3.0,4.0,44,0.00,,,0.00,weatherlink.com 1.10,2013-10-16 04:17:00,
2013-10-15 21:32:00,45.7,25.0,30.16,SE,143,0.0,1.0,45,0.00,,,0.00,weatherlink.com 1.10,2013-10-16 04:32:00,
2013-10-15 21:48:00,45.3,25.0,30.16,SSE,155,0.0,4.0,46,0.00,,,0.00,weatherlink.com 1.10,2013-10-16 04:48:00,
2013-10-15 22:03:00,46.3,25.0,30.15,SE,139,3.0,6.0,44,0.00,,,0.00,weatherlink.com 1.10,2013-10-16 05:03:00,
2013-10-15 22:18:00,46.3,25.0,30.14,SSE,160,0.0,4.0,43,0.00,,,0.00,weatherlink.com 1.10,2013-10-16 05:18:00,
2013-10-15 22:33:00,46.4,25.0,30.14,SSE,159,0.0,5.0,43,0.00,,,0.00,weatherlink.com 1.10,2013-10-16 05:33:00,
2013-10-15 22:48:00,46.1,25.0,30.15,SW,222,1.0,4.0,43,0.00,,,0.00,weatherlink.com 1.10,2013-10-16 05:48:00,
2013-10-15 23:03:00,45.2,25.0,30.15,SSW,208,0.0,1.0,45,0.00,,,0.00,weatherlink.com 1.10,2013-10-16 06:03:00,
2013-10-15 23:18:00,44.5,25.0,30.14,SE,146,0.0,6.0,46,0.00,,,0.00,weatherlink.com 1.10,2013-10-16 06:18:00,
2013-10-15 23:33:00,43.4,25.0,30.14,WSW,250,0.0,1.0,48,0.00,,,0.00,weatherlink.com 1.10,2013-10-16 06:33:00,
2013-10-15 23:48:00,43.6,25.0,30.13,SW,218,0.0,4.0,48,0.00,,,0.00,weatherlink.com 1.10,2013-10-16 06:48:00,